Location: Błonie
(52.1971°N, 20.6200°E)
Time: 14:51:29
(UTC+01:00)

ISS - Pass Details

Date: 02 February 2019
Orbit: 403 x 411 km, 51.6° (Epoch: 23 February)

Event Time Altitude Azimuth Distance (km) Brightness Sun altitude
Rises 18:03:28 0° 275° (W) 2,337 1.7 -15.0°
Reaches altitude 10° 18:05:33 10° 274° (W) 1,477 0.3 -15.3°
Maximum altitude 18:08:51 76° 188° (S) 427 -3.8 -15.8°
Enters shadow 18:10:00 38° 110° (ESE) 651 -3.3 -16.0°
